This is the latest recevied weather packets stored in our database for station/object KC1TLF-15. If no packets are shown the sender has not sent any weather packets the latest 10 day(s).
| Time | Temp. | Humidity | Pressure | Rain* | Wind** | Luminosity | Snow |
|---|---|---|---|---|---|---|---|
| 1777435871 | 7.22° C | 75% | 1027.1 hPa | 0 mm | 0 m/s | 0 W/m² | - |
| 1777435270 | 7.22° C | 74% | 1027.3 hPa | 0 mm | 0.45 m/s, 350° | 0 W/m² | - |
| 1777434670 | 7.22° C | 74% | 1027.6 hPa | 0 mm | 0 m/s | 0 W/m² | - |
| 1777434070 | 7.22° C | 74% | 1028 hPa | 0 mm | 0 m/s | 0 W/m² | - |
| 1777433472 | 7.22° C | 75% | 1027.9 hPa | 0 mm | 0.45 m/s, 321° | 0 W/m² | - |
| 1777432870 | 7.22° C | 74% | 1028.1 hPa | 0 mm | 0 m/s | 0 W/m² | - |
| 1777432271 | 6.67° C | 75% | 1028.2 hPa | 0 mm | 0 m/s | 0 W/m² | - |
| 1777431670 | 6.67° C | 75% | 1028.1 hPa | 0 mm | 0 m/s | 0 W/m² | - |
| 1777431068 | 6.67° C | 74% | 1028.2 hPa | 0 mm | 0 m/s | 0 W/m² | - |
| 1777430471 | 6.67° C | 73% | 1028.2 hPa | 0 mm | 0 m/s | 0 W/m² | - |
| 1777429870 | 6.67° C | 73% | 1028.4 hPa | 0 mm | 0 m/s | 0 W/m² | - |
| 1777429270 | 7.22° C | 72% | 1028.5 hPa | 0 mm | 0 m/s | 0 W/m² | - |
| 1777428669 | 7.22° C | 72% | 1028.5 hPa | 0 mm | 0 m/s | 0 W/m² | - |
| 1777428070 | 7.22° C | 72% | 1028.7 hPa | 0 mm | 0 m/s | 0 W/m² | - |
| 1777427471 | 7.22° C | 72% | 1028.5 hPa | 0 mm | 0 m/s | 0 W/m² | - |
| 1777426870 | 7.22° C | 71% | 1028.8 hPa | 0 mm | 0 m/s | 0 W/m² | - |
| 1777426270 | 7.78° C | 69% | 1028.6 hPa | 0 mm | 0 m/s | 0 W/m² | - |
| 1777425671 | 7.78° C | 67% | 1028.7 hPa | 0 mm | 0 m/s | 0 W/m² | - |
| 1777425069 | 7.78° C | 62% | 1028.6 hPa | 0 mm | 0 m/s | 0 W/m² | - |
| 1777424471 | 7.78° C | 60% | 1028.7 hPa | 0 mm | 0.89 m/s, 67° | 0 W/m² | - |
| 1777423869 | 8.33° C | 56% | 1028.4 hPa | 0 mm | 0 m/s | 0 W/m² | - |
| 1777423269 | 8.33° C | 53% | 1028.3 hPa | 0 mm | 0 m/s | 0 W/m² | - |
| 1777422671 | 8.89° C | 48% | 1028.5 hPa | 0 mm | 0 m/s | 0 W/m² | - |
| 1777422070 | 8.89° C | 46% | 1028.6 hPa | 0 mm | 0 m/s | 0 W/m² | - |
| 1777421472 | 8.89° C | 43% | 1028.2 hPa | 0 mm | 0 m/s | - | - |
* Rain latest hour (hover to see other rain measurements)
** Current wind speed in m/s (hover to see current wind gust speed)